TimeCST,TemperatureF,Dew PointF,Humidity,Sea Level PressureIn,VisibilityMPH,Wind Direction,Wind SpeedMPH,Gust SpeedMPH,PrecipitationIn,Events,Conditions,WindDirDegrees,DateUTC
12:18 AM,60.8,55.4,82,30.04,1.8,South,3.5,-,N/A,,Haze,170,2013-02-06 06:18:00
12:39 AM,60.8,55.4,82,30.04,2.5,Calm,Calm,-,N/A,,Haze,0,2013-02-06 06:39:00
12:53 AM,60.8,55.4,82,30.04,2.5,SE,3.5,-,N/A,,Haze,140,2013-02-06 06:53:00
1:27 AM,60.8,55.4,82,30.04,1.2,ESE,3.5,-,N/A,,Haze,120,2013-02-06 07:27:00
1:53 AM,60.1,55.9,86,30.03,1.2,Calm,Calm,-,N/A,,Clear,0,2013-02-06 07:53:00
2:14 AM,60.8,55.4,82,30.05,2.5,ENE,3.5,-,N/A,,Haze,60,2013-02-06 08:14:00
2:30 AM,60.8,55.4,82,30.04,1.2,Calm,Calm,-,0.01,,Haze,0,2013-02-06 08:30:00
2:37 AM,59.0,55.4,88,30.04,0.2,Calm,Calm,-,0.01,Fog,Fog,0,2013-02-06 08:37:00
2:53 AM,59.0,55.0,87,30.03,0.2,Calm,Calm,-,0.01,Fog,Fog,0,2013-02-06 08:53:00
3:53 AM,60.1,55.9,86,30.05,0.2,Calm,Calm,-,N/A,Fog,Fog,0,2013-02-06 09:53:00
4:18 AM,59.0,55.4,88,30.06,0.5,Calm,Calm,-,N/A,Fog,Fog,0,2013-02-06 10:18:00
4:43 AM,60.8,55.4,82,30.08,0.2,Calm,Calm,-,N/A,,Haze,0,2013-02-06 10:43:00
4:53 AM,60.1,55.9,86,30.06,0.2,East,3.5,-,N/A,Fog,Fog,80,2013-02-06 10:53:00
5:53 AM,60.8,55.4,82,30.08,0.2,NE,5.8,-,N/A,,Haze,50,2013-02-06 11:53:00
6:14 AM,60.8,55.4,82,30.09,0.2,East,4.6,-,N/A,Fog,Fog,90,2013-02-06 12:14:00
6:30 AM,60.8,55.4,82,30.09,1.0,East,4.6,-,N/A,,Mist,100,2013-02-06 12:30:00
6:43 AM,60.8,57.2,88,30.10,2.0,ESE,3.5,-,N/A,,Overcast,110,2013-02-06 12:43:00
6:51 AM,60.8,57.2,88,30.10,4.0,East,4.6,-,N/A,,Overcast,90,2013-02-06 12:51:00
6:53 AM,61.0,57.0,87,30.08,4.0,East,3.5,-,N/A,,Overcast,100,2013-02-06 12:53:00
7:53 AM,63.0,57.9,84,30.10,4.0,East,4.6,-,N/A,,Haze,100,2013-02-06 13:53:00
8:53 AM,63.0,57.9,84,30.12,4.0,ESE,9.2,-,N/A,,Haze,110,2013-02-06 14:53:00
9:53 AM,64.0,57.9,80,30.13,4.0,ESE,9.2,-,N/A,,Haze,110,2013-02-06 15:53:00
10:53 AM,66.0,57.9,75,30.11,9.0,East,11.5,-,N/A,,Overcast,90,2013-02-06 16:53:00
11:30 AM,66.2,57.2,73,30.11,10.0,East,11.5,-,N/A,,Overcast,100,2013-02-06 17:30:00
11:53 AM,66.9,57.0,70,30.09,10.0,East,12.7,-,N/A,,Overcast,90,2013-02-06 17:53:00
12:53 PM,66.0,57.0,73,30.06,10.0,East,11.5,-,N/A,,Overcast,90,2013-02-06 18:53:00
1:53 PM,64.0,57.0,78,30.04,9.0,East,15.0,-,N/A,,Overcast,90,2013-02-06 19:53:00
2:00 PM,64.4,57.2,77,30.06,7.0,East,12.7,-,N/A,,Overcast,90,2013-02-06 20:00:00
2:53 PM,64.9,55.9,73,30.02,10.0,East,15.0,-,N/A,,Overcast,100,2013-02-06 20:53:00
3:53 PM,64.9,57.0,75,30.03,10.0,ESE,11.5,-,N/A,,Overcast,120,2013-02-06 21:53:00
4:53 PM,66.0,57.0,73,30.05,10.0,SE,9.2,-,N/A,,Mostly Cloudy,130,2013-02-06 22:53:00
5:00 PM,64.4,57.2,77,30.06,10.0,ESE,9.2,-,N/A,,Overcast,120,2013-02-06 23:00:00
5:53 PM,64.9,57.9,78,30.03,10.0,ESE,8.1,-,N/A,,Overcast,110,2013-02-06 23:53:00
6:49 PM,64.4,57.2,77,29.99,10.0,East,17.3,-,N/A,,Mostly Cloudy,80,2013-02-07 00:49:00
6:53 PM,64.0,57.0,78,29.98,10.0,East,15.0,-,N/A,,Mostly Cloudy,90,2013-02-07 00:53:00
7:53 PM,64.0,57.0,78,29.97,10.0,East,17.3,-,N/A,,Partly Cloudy,80,2013-02-07 01:53:00
8:53 PM,64.0,57.0,78,30.02,5.0,NE,10.4,-,0.03,Rain,Light Rain,50,2013-02-07 02:53:00
9:39 PM,62.6,57.2,82,30.05,6.0,ENE,8.1,-,0.04,Rain,Light Rain,60,2013-02-07 03:39:00
9:53 PM,63.0,57.0,81,30.02,4.0,ENE,10.4,-,0.07,Rain,Light Rain,60,2013-02-07 03:53:00
10:26 PM,62.6,57.2,82,30.01,5.0,ENE,12.7,-,0.06,Rain,Light Rain,70,2013-02-07 04:26:00
10:53 PM,64.0,57.9,80,29.98,5.0,ENE,16.1,-,0.11,Rain,Light Rain,70,2013-02-07 04:53:00
11:23 PM,64.4,57.2,77,29.98,4.0,ENE,16.1,-,0.09,Rain,Light Rain,70,2013-02-07 05:23:00
11:46 PM,62.6,57.2,82,29.96,5.0,ENE,18.4,-,0.14,Rain,Light Rain,60,2013-02-07 05:46:00
11:53 PM,64.0,57.9,80,29.93,6.0,ENE,20.7,-,0.15,Rain,Light Rain,70,2013-02-07 05:53:00